Year,Month,Day,Hour,Minute,Value (Times are PST for temperature in C)
2009,04,28,00,00,11.60
2009,04,28,00,01,11.60
2009,04,28,00,02,11.60
2009,04,28,00,03,11.60
2009,04,28,00,04,11.60
2009,04,28,00,05,11.60
2009,04,28,00,06,11.70
2009,04,28,00,07,11.70
2009,04,28,00,08,11.70
2009,04,28,00,09,11.70
2009,04,28,00,10,11.70
2009,04,28,00,11,11.60
2009,04,28,00,12,11.60
2009,04,28,01,02,10.70
2009,04,28,01,03,10.70
2009,04,28,01,04,10.70
2009,04,28,01,05,10.70
2009,04,28,01,06,10.70
2009,04,28,01,07,10.70
2009,04,28,01,08,10.70
2009,04,28,01,09,10.70
2009,04,28,01,10,10.70
2009,04,28,01,11,10.70
2009,04,28,01,12,10.70
2009,04,28,01,13,10.70
2009,04,28,01,14,10.70
2009,04,28,01,15,10.70
2009,04,28,01,16,10.80
2009,04,28,01,17,10.80
2009,04,28,01,18,10.80
2009,04,28,01,19,10.80
2009,04,28,01,20,10.80
2009,04,28,01,21,10.80
2009,04,28,01,22,10.80
2009,04,28,01,23,10.70
2009,04,28,01,24,10.70
2009,04,28,01,25,10.70
2009,04,28,01,26,10.70
2009,04,28,01,27,10.70
2009,04,28,01,28,10.70
2009,04,28,01,29,10.60
2009,04,28,01,30,10.60
2009,04,28,01,31,10.60
2009,04,28,01,32,10.60
2009,04,28,01,33,10.60
2009,04,28,01,34,10.60
2009,04,28,01,35,10.60
2009,04,28,01,36,10.60
2009,04,28,01,37,10.60
2009,04,28,01,38,10.70
2009,04,28,01,39,10.70
2009,04,28,01,40,10.70
2009,04,28,01,41,10.70
2009,04,28,01,42,10.60
2009,04,28,01,43,10.60
2009,04,28,01,44,10.60
2009,04,28,01,45,10.50
2009,04,28,01,46,10.50
2009,04,28,01,47,10.50
2009,04,28,01,48,10.40
2009,04,28,01,49,10.40
2009,04,28,01,50,10.40
2009,04,28,01,51,10.40
2009,04,28,01,52,10.40
2009,04,28,01,53,10.40
2009,04,28,01,54,10.30
2009,04,28,01,55,10.30
2009,04,28,01,56,10.30
2009,04,28,01,57,10.20
2009,04,28,01,58,10.20
2009,04,28,01,59,10.10
2009,04,28,02,00,10.10
2009,04,28,02,01,10.10
2009,04,28,02,02,10.00
2009,04,28,02,03,10.00
2009,04,28,02,04,9.90
2009,04,28,02,05,9.90
2009,04,28,02,06,9.90
2009,04,28,02,07,9.80
2009,04,28,02,08,9.80
2009,04,28,02,09,9.80
2009,04,28,02,10,9.80
2009,04,28,02,11,9.80
2009,04,28,02,12,9.80
2009,04,28,02,13,9.70
2009,04,28,02,14,9.70
2009,04,28,02,15,9.70
2009,04,28,02,16,9.70
2009,04,28,02,17,9.70
2009,04,28,02,18,9.80
2009,04,28,02,19,9.80
2009,04,28,02,20,9.80
2009,04,28,02,21,9.80
2009,04,28,02,22,9.70
2009,04,28,02,23,9.70
2009,04,28,02,24,9.70
2009,04,28,02,25,9.80
2009,04,28,02,26,9.80
2009,04,28,02,27,9.90
2009,04,28,02,28,9.90
2009,04,28,02,29,10.00
2009,04,28,02,30,10.10
2009,04,28,02,31,10.10
2009,04,28,02,32,10.20
2009,04,28,02,33,10.20
2009,04,28,02,34,10.20
2009,04,28,02,35,10.20
2009,04,28,02,36,10.30
2009,04,28,02,37,10.30
2009,04,28,02,38,10.30
2009,04,28,02,39,10.30
2009,04,28,02,40,10.30
2009,04,28,02,41,10.30
2009,04,28,02,42,10.30
2009,04,28,02,43,10.30
2009,04,28,02,44,10.30
2009,04,28,02,45,10.30
2009,04,28,02,46,10.30
2009,04,28,02,47,10.40
2009,04,28,02,48,10.40
2009,04,28,02,49,10.40
2009,04,28,02,50,10.40
2009,04,28,02,51,10.40
2009,04,28,02,52,10.40
2009,04,28,02,53,10.40
2009,04,28,02,54,10.40
2009,04,28,02,55,10.30
2009,04,28,02,56,10.30
2009,04,28,02,57,10.30
2009,04,28,02,58,10.30
2009,04,28,02,59,10.20
2009,04,28,03,00,10.20
2009,04,28,03,01,10.20
2009,04,28,03,02,10.20
2009,04,28,03,03,10.20
2009,04,28,03,04,10.20
2009,04,28,03,05,10.10
2009,04,28,03,06,10.10
2009,04,28,03,07,10.00
2009,04,28,03,08,10.00
2009,04,28,03,09,9.90
2009,04,28,03,10,9.90
2009,04,28,03,11,9.80
2009,04,28,03,12,9.70
2009,04,28,03,13,9.60
2009,04,28,03,14,9.60
2009,04,28,03,15,9.50
2009,04,28,03,16,9.50
2009,04,28,03,17,9.40
2009,04,28,03,18,9.30
2009,04,28,03,19,9.30
2009,04,28,03,20,9.30
2009,04,28,03,21,9.30
2009,04,28,03,22,9.20
2009,04,28,03,23,9.20
2009,04,28,03,24,9.20
2009,04,28,03,25,9.20
2009,04,28,03,26,9.20
2009,04,28,03,27,9.10
2009,04,28,03,28,9.10
2009,04,28,03,29,9.10
2009,04,28,03,30,9.10
2009,04,28,03,31,9.00
2009,04,28,03,32,9.00
2009,04,28,03,33,8.90
2009,04,28,03,34,8.90
2009,04,28,03,35,8.80
2009,04,28,03,36,8.80
2009,04,28,03,37,8.80
2009,04,28,03,38,8.70
2009,04,28,03,39,8.80
2009,04,28,03,40,8.70
2009,04,28,03,41,8.70
2009,04,28,03,42,8.70
2009,04,28,03,43,8.60
2009,04,28,03,44,8.60
2009,04,28,03,45,8.50
2009,04,28,03,46,8.50
2009,04,28,03,47,8.40
2009,04,28,03,48,8.40
2009,04,28,03,49,8.30
2009,04,28,03,50,8.30
2009,04,28,03,51,8.30
2009,04,28,03,52,8.20
2009,04,28,03,53,8.20
2009,04,28,03,54,8.20
2009,04,28,03,55,8.10
2009,04,28,03,56,8.10
2009,04,28,03,57,8.10
2009,04,28,03,58,8.10
2009,04,28,03,59,8.20
2009,04,28,04,00,8.20
2009,04,28,04,01,8.20
2009,04,28,04,02,8.20
2009,04,28,04,03,8.20
2009,04,28,04,04,8.20
2009,04,28,04,05,8.20
2009,04,28,04,06,8.20
2009,04,28,04,07,8.20
2009,04,28,04,08,8.20
2009,04,28,04,09,8.20
2009,04,28,04,10,8.20
2009,04,28,04,11,8.20
2009,04,28,04,12,8.20
2009,04,28,04,13,8.20
2009,04,28,04,14,8.20
2009,04,28,04,15,8.20
2009,04,28,04,16,8.30
2009,04,28,04,17,8.30
2009,04,28,04,18,8.30
2009,04,28,04,19,8.30
2009,04,28,04,20,8.30
2009,04,28,04,21,8.30
2009,04,28,04,22,8.30
2009,04,28,04,23,8.30
2009,04,28,04,24,8.30
2009,04,28,04,25,8.30
2009,04,28,04,26,8.30
2009,04,28,04,27,8.30
2009,04,28,04,28,8.30
2009,04,28,04,29,8.30
2009,04,28,04,30,8.30
2009,04,28,04,31,8.30
2009,04,28,04,32,8.20
2009,04,28,04,33,8.10
2009,04,28,04,34,8.10
2009,04,28,04,35,8.00
2009,04,28,04,36,8.00
2009,04,28,04,37,7.90
2009,04,28,04,38,8.00
2009,04,28,04,39,8.10
2009,04,28,04,40,8.10
2009,04,28,04,41,8.20
2009,04,28,04,42,8.20
2009,04,28,04,43,8.10
2009,04,28,04,44,8.20
2009,04,28,04,45,8.10
2009,04,28,04,46,8.20
2009,04,28,04,47,8.20
2009,04,28,04,48,8.10
2009,04,28,04,49,8.10
2009,04,28,04,50,8.00
2009,04,28,04,51,7.90
2009,04,28,04,52,7.90
2009,04,28,04,53,7.80
2009,04,28,04,54,7.70
2009,04,28,04,55,7.70
2009,04,28,04,56,7.60
2009,04,28,04,57,7.60
2009,04,28,04,58,7.60
2009,04,28,04,59,7.60
2009,04,28,05,00,7.60
2009,04,28,05,01,7.60
2009,04,28,05,02,7.60
2009,04,28,05,03,7.60
2009,04,28,05,04,7.60
2009,04,28,05,05,7.70
2009,04,28,05,06,7.70
2009,04,28,05,07,7.70
2009,04,28,05,08,7.80
2009,04,28,05,09,7.80
2009,04,28,05,10,7.80
2009,04,28,05,11,7.80
2009,04,28,05,12,7.80
2009,04,28,05,13,7.80
2009,04,28,05,14,7.80
2009,04,28,05,15,7.80
2009,04,28,05,16,7.70
2009,04,28,05,17,7.70
2009,04,28,05,18,7.70
2009,04,28,05,19,7.70
2009,04,28,05,20,7.70
2009,04,28,05,21,7.70
2009,04,28,05,22,7.70
2009,04,28,05,23,7.70
2009,04,28,05,24,7.70
2009,04,28,05,25,7.80
2009,04,28,05,26,7.80
2009,04,28,05,27,7.70
2009,04,28,05,28,7.70
2009,04,28,05,29,7.60
2009,04,28,05,30,7.60
2009,04,28,05,31,7.60
2009,04,28,05,32,7.60
2009,04,28,05,33,7.50
2009,04,28,05,34,7.50
2009,04,28,05,35,7.50
2009,04,28,05,36,7.40
2009,04,28,05,37,7.40
2009,04,28,05,38,7.40
2009,04,28,05,39,7.40
2009,04,28,05,40,7.40
2009,04,28,05,41,7.40
2009,04,28,05,42,7.40
2009,04,28,05,43,7.30
2009,04,28,05,44,7.40
2009,04,28,05,45,7.30
2009,04,28,05,46,7.40
2009,04,28,05,47,7.30
2009,04,28,05,48,7.30
2009,04,28,05,49,7.30
2009,04,28,05,50,7.30
2009,04,28,05,51,7.40
2009,04,28,05,52,7.50
2009,04,28,05,53,7.60
2009,04,28,05,54,7.70
2009,04,28,05,55,7.70
2009,04,28,05,56,7.70
2009,04,28,05,57,7.70
2009,04,28,05,58,7.70
2009,04,28,05,59,7.70
2009,04,28,06,00,7.80
2009,04,28,06,01,7.80
2009,04,28,06,02,7.70
2009,04,28,06,03,7.70
2009,04,28,06,04,7.70
2009,04,28,06,05,7.70
2009,04,28,06,06,7.70
2009,04,28,06,07,7.70
2009,04,28,06,08,7.80
2009,04,28,06,09,7.90
2009,04,28,06,10,7.80
2009,04,28,06,11,7.80
2009,04,28,06,12,7.80
2009,04,28,06,13,7.80
2009,04,28,06,14,7.80
2009,04,28,06,15,7.80
2009,04,28,06,16,7.80
2009,04,28,06,17,7.80
2009,04,28,06,18,7.80
2009,04,28,06,19,7.80
2009,04,28,06,20,7.90
2009,04,28,06,21,7.80
2009,04,28,06,22,7.80
2009,04,28,06,23,7.80
2009,04,28,06,24,7.70
2009,04,28,06,25,7.70
2009,04,28,06,26,7.70
2009,04,28,06,27,7.70
2009,04,28,06,28,7.70
2009,04,28,06,29,7.70
2009,04,28,06,30,7.70
2009,04,28,06,31,7.70
2009,04,28,06,32,7.70
2009,04,28,06,33,7.70
2009,04,28,06,34,7.70
2009,04,28,06,35,7.70
2009,04,28,06,36,7.70
2009,04,28,06,37,7.70
2009,04,28,06,38,7.80
2009,04,28,06,39,7.80
2009,04,28,06,40,7.80
2009,04,28,06,41,7.90
2009,04,28,06,42,7.90
2009,04,28,06,43,7.90
2009,04,28,06,44,7.90
2009,04,28,06,45,7.90
2009,04,28,06,46,8.00
2009,04,28,06,47,8.00
2009,04,28,06,48,8.10
2009,04,28,06,49,8.10
2009,04,28,06,50,8.10
2009,04,28,06,51,8.10
2009,04,28,06,52,8.20
2009,04,28,06,53,8.30
2009,04,28,06,54,8.30
2009,04,28,06,55,8.30
2009,04,28,06,56,8.30
2009,04,28,06,57,8.20
2009,04,28,06,58,8.20
2009,04,28,06,59,8.20
2009,04,28,07,00,8.20
2009,04,28,07,01,8.30
2009,04,28,07,02,8.30
2009,04,28,07,03,8.30
2009,04,28,07,04,8.30
2009,04,28,07,05,8.30
2009,04,28,07,06,8.40
2009,04,28,07,07,8.40
2009,04,28,07,08,8.50
2009,04,28,07,09,8.40
2009,04,28,07,10,8.50
2009,04,28,07,11,8.50
2009,04,28,07,12,8.50
2009,04,28,07,13,8.60
2009,04,28,07,14,8.60
2009,04,28,07,15,8.60
2009,04,28,07,16,8.60
2009,04,28,07,17,8.60
2009,04,28,07,18,8.60
2009,04,28,07,19,8.60
2009,04,28,07,20,8.60
2009,04,28,07,21,8.50
2009,04,28,07,22,8.60
2009,04,28,07,23,8.60
2009,04,28,07,24,8.60
2009,04,28,07,25,8.60
2009,04,28,07,26,8.60
2009,04,28,07,27,8.60
2009,04,28,07,28,8.60
2009,04,28,07,29,8.60
2009,04,28,07,30,8.70
2009,04,28,07,31,8.80
2009,04,28,07,32,8.90
2009,04,28,07,33,9.00
2009,04,28,07,34,9.00
2009,04,28,07,35,9.10
2009,04,28,07,36,9.20
2009,04,28,07,37,9.30
2009,04,28,07,38,9.40
2009,04,28,07,39,9.50
2009,04,28,07,40,9.60
2009,04,28,07,41,9.70
2009,04,28,07,42,9.80
2009,04,28,07,43,9.90
2009,04,28,07,44,10.00
2009,04,28,07,45,10.10
2009,04,28,07,46,10.20
2009,04,28,07,47,10.20
2009,04,28,07,48,10.30
2009,04,28,07,49,10.30
2009,04,28,07,50,10.30
2009,04,28,07,51,10.40
2009,04,28,07,52,10.50
2009,04,28,07,53,10.50
2009,04,28,07,54,10.60
2009,04,28,07,55,10.70
2009,04,28,07,56,10.80
2009,04,28,07,57,10.80
2009,04,28,07,58,10.90
2009,04,28,07,59,10.90
2009,04,28,08,00,11.00
2009,04,28,08,01,11.10
2009,04,28,08,02,11.10
2009,04,28,08,03,11.20
2009,04,28,08,04,11.20
2009,04,28,08,05,11.20
2009,04,28,08,06,11.30
2009,04,28,08,07,11.30
2009,04,28,08,08,11.30
2009,04,28,08,09,11.30
2009,04,28,08,10,11.40
2009,04,28,08,11,11.40
2009,04,28,08,12,11.40
2009,04,28,08,13,11.40
2009,04,28,08,14,11.40
2009,04,28,08,15,11.40
2009,04,28,08,16,11.40
2009,04,28,08,17,11.50
2009,04,28,08,18,11.60
2009,04,28,08,19,11.60
2009,04,28,08,20,11.70
2009,04,28,08,21,11.70
2009,04,28,08,22,11.70
2009,04,28,08,23,11.70
2009,04,28,08,24,11.60
2009,04,28,08,25,11.60
2009,04,28,08,26,11.60
2009,04,28,08,27,11.60
2009,04,28,08,28,11.60
2009,04,28,08,29,11.60
2009,04,28,08,30,11.60
2009,04,28,08,31,11.60
2009,04,28,08,32,11.60
2009,04,28,08,33,11.60
2009,04,28,08,34,11.60
2009,04,28,08,35,11.60
2009,04,28,08,36,11.60
2009,04,28,08,37,11.60
2009,04,28,08,38,11.70
2009,04,28,08,39,11.70
2009,04,28,08,40,11.70
2009,04,28,08,41,11.70
2009,04,28,08,42,11.80
2009,04,28,08,43,11.80
2009,04,28,08,44,11.80
2009,04,28,08,45,11.80
2009,04,28,08,46,11.80
2009,04,28,08,47,11.80
2009,04,28,08,48,11.80
2009,04,28,08,49,11.80
2009,04,28,08,50,11.90
2009,04,28,08,51,12.00
2009,04,28,08,52,12.00
2009,04,28,08,53,12.10
2009,04,28,08,54,12.20
2009,04,28,08,55,12.20
2009,04,28,08,56,12.20
2009,04,28,08,57,12.20
2009,04,28,08,58,12.20
2009,04,28,08,59,12.20
2009,04,28,09,00,12.30
2009,04,28,09,01,12.30
2009,04,28,09,02,12.30
2009,04,28,09,03,12.30
2009,04,28,09,04,12.40
2009,04,28,09,05,12.40
2009,04,28,09,06,12.40
2009,04,28,09,07,12.40
2009,04,28,09,08,12.40
2009,04,28,09,09,12.40
2009,04,28,09,10,12.50
2009,04,28,09,11,12.50
2009,04,28,09,12,12.50
2009,04,28,09,13,12.40
2009,04,28,09,14,12.40
2009,04,28,09,15,12.40
2009,04,28,09,16,12.40
2009,04,28,09,17,12.40
2009,04,28,09,18,12.40
2009,04,28,09,19,12.40
2009,04,28,09,20,12.40
2009,04,28,09,21,12.50
2009,04,28,09,22,12.60
2009,04,28,09,23,12.60
2009,04,28,09,24,12.70
2009,04,28,09,25,12.70
2009,04,28,09,26,12.70
2009,04,28,09,27,12.70
2009,04,28,09,28,12.70
2009,04,28,09,29,12.70
2009,04,28,09,30,12.70
2009,04,28,09,31,12.70
2009,04,28,09,32,12.70
2009,04,28,09,33,12.70
2009,04,28,09,34,12.80
2009,04,28,09,35,12.80
2009,04,28,09,36,12.90
2009,04,28,09,37,13.00
2009,04,28,09,38,13.10
2009,04,28,09,39,13.20
2009,04,28,09,40,13.20
2009,04,28,09,41,13.30
2009,04,28,09,42,13.30
2009,04,28,09,43,13.30
2009,04,28,09,44,13.20
2009,04,28,09,45,13.20
2009,04,28,09,46,13.10
2009,04,28,09,47,13.10
2009,04,28,09,48,13.10
2009,04,28,09,49,13.10
2009,04,28,09,50,13.10
2009,04,28,09,51,13.10
2009,04,28,09,52,13.20
2009,04,28,09,53,13.20
2009,04,28,09,54,13.30
2009,04,28,09,55,13.30
2009,04,28,09,56,13.40
2009,04,28,09,57,13.50
2009,04,28,09,58,13.60
2009,04,28,09,59,13.60
2009,04,28,10,00,13.70
2009,04,28,10,01,13.60
2009,04,28,10,02,13.70
2009,04,28,10,03,13.70
2009,04,28,10,04,13.70
2009,04,28,10,05,13.70
2009,04,28,10,06,13.70
2009,04,28,10,07,13.70
2009,04,28,10,08,13.70
2009,04,28,10,09,13.70
2009,04,28,10,10,13.70
2009,04,28,10,11,13.60
2009,04,28,10,12,13.60
2009,04,28,10,13,13.60
2009,04,28,10,14,13.60
2009,04,28,10,15,13.70
2009,04,28,10,16,13.70
2009,04,28,10,17,13.70
2009,04,28,10,18,13.70
2009,04,28,10,19,13.70
2009,04,28,10,20,13.70
2009,04,28,10,21,13.60
2009,04,28,10,22,13.60
2009,04,28,10,23,13.60
2009,04,28,10,24,13.60
2009,04,28,10,25,13.60
2009,04,28,10,26,13.60
2009,04,28,10,27,13.60
2009,04,28,10,28,13.60
2009,04,28,10,29,13.70
2009,04,28,10,30,13.70
2009,04,28,10,31,13.70
2009,04,28,10,32,13.70
2009,04,28,10,33,13.80
2009,04,28,10,34,13.80
2009,04,28,10,35,13.80
2009,04,28,10,36,13.90
2009,04,28,10,37,13.90
2009,04,28,10,38,13.90
2009,04,28,10,39,13.90
2009,04,28,10,40,14.00
2009,04,28,10,41,14.00
2009,04,28,10,42,14.00
2009,04,28,10,43,13.90
2009,04,28,10,44,13.90
2009,04,28,10,45,13.80
2009,04,28,10,46,13.80
2009,04,28,10,47,13.80
2009,04,28,10,48,13.80
2009,04,28,10,49,13.80
2009,04,28,10,50,13.80
2009,04,28,10,51,13.80
2009,04,28,10,52,13.80
2009,04,28,10,53,13.80
2009,04,28,10,54,13.80
2009,04,28,10,55,13.80
2009,04,28,10,56,13.80
2009,04,28,10,57,13.80
2009,04,28,10,58,13.90
2009,04,28,10,59,13.90
2009,04,28,11,00,13.90
2009,04,28,11,01,13.90
2009,04,28,11,02,13.90
2009,04,28,11,03,13.90
2009,04,28,11,04,13.90
2009,04,28,11,05,14.00
2009,04,28,11,06,14.00
2009,04,28,11,07,14.00
2009,04,28,11,08,14.00
2009,04,28,11,09,14.00
2009,04,28,11,10,14.10
2009,04,28,11,11,14.10
2009,04,28,11,12,14.10
2009,04,28,11,13,14.10
2009,04,28,11,14,14.10
2009,04,28,11,15,14.10
2009,04,28,11,16,14.10
2009,04,28,11,17,14.20
2009,04,28,11,18,14.20
2009,04,28,11,19,14.30
2009,04,28,11,20,14.30
2009,04,28,11,21,14.30
2009,04,28,11,22,14.30
2009,04,28,11,23,14.30
2009,04,28,11,24,14.30
2009,04,28,11,25,14.30
2009,04,28,11,26,14.30
2009,04,28,11,27,14.40
2009,04,28,11,28,14.40
2009,04,28,11,29,14.40
2009,04,28,11,30,14.50
2009,04,28,11,31,14.50
2009,04,28,11,32,14.60
2009,04,28,11,33,14.60
2009,04,28,11,34,14.70
2009,04,28,11,35,14.80
2009,04,28,11,36,14.80
2009,04,28,11,37,14.80
2009,04,28,11,38,14.80
2009,04,28,11,39,14.70
2009,04,28,11,40,14.70
2009,04,28,11,41,14.60
2009,04,28,11,42,14.60
2009,04,28,11,43,14.60
2009,04,28,11,44,14.60
2009,04,28,11,45,14.70
2009,04,28,11,46,14.70
2009,04,28,11,47,14.60
2009,04,28,11,48,14.60
2009,04,28,11,49,14.50
2009,04,28,11,50,14.50
2009,04,28,11,51,14.50
2009,04,28,11,52,14.60
2009,04,28,11,53,14.60
2009,04,28,11,54,14.70
2009,04,28,11,55,14.60
2009,04,28,11,56,14.70
2009,04,28,11,57,14.70
2009,04,28,11,58,14.80
2009,04,28,11,59,14.90
2009,04,28,12,00,14.90
2009,04,28,12,01,15.00
2009,04,28,12,02,15.00
2009,04,28,12,03,15.00
2009,04,28,12,04,15.00
2009,04,28,12,05,15.00
2009,04,28,12,06,15.00
2009,04,28,12,07,15.00
2009,04,28,12,08,14.90
2009,04,28,12,09,14.80
2009,04,28,12,10,14.80
2009,04,28,12,11,14.70
2009,04,28,12,12,14.70
2009,04,28,12,13,14.70
2009,04,28,12,14,14.70
2009,04,28,12,15,14.80
2009,04,28,12,16,14.90
2009,04,28,12,17,15.00
2009,04,28,12,18,15.00
2009,04,28,12,19,15.00
2009,04,28,12,20,15.00
2009,04,28,12,21,15.00
2009,04,28,12,22,15.00
2009,04,28,12,23,15.00
2009,04,28,12,24,15.00
2009,04,28,12,25,15.00
2009,04,28,12,26,15.10
2009,04,28,12,27,15.20
2009,04,28,12,28,15.20
2009,04,28,12,29,15.20
2009,04,28,12,30,15.20
2009,04,28,12,31,15.20
2009,04,28,12,32,15.20
2009,04,28,12,33,15.20
2009,04,28,12,34,15.20
2009,04,28,12,35,15.20
2009,04,28,12,36,15.30
2009,04,28,12,37,15.30
2009,04,28,12,38,15.30
2009,04,28,12,39,15.30
2009,04,28,12,40,15.20
2009,04,28,12,41,15.30
2009,04,28,12,42,15.30
2009,04,28,12,43,15.30
2009,04,28,12,44,15.30
2009,04,28,12,45,15.20
2009,04,28,12,46,15.10
2009,04,28,12,47,15.00
2009,04,28,12,48,15.00
2009,04,28,12,49,15.00
2009,04,28,12,50,15.00
2009,04,28,12,51,15.00
2009,04,28,12,52,15.00
2009,04,28,12,53,15.00
2009,04,28,12,54,15.00
2009,04,28,12,55,15.00
2009,04,28,12,56,15.00
2009,04,28,12,57,15.00
2009,04,28,12,58,15.00
2009,04,28,12,59,15.00
2009,04,28,13,00,15.00
2009,04,28,13,01,15.00
2009,04,28,13,02,15.00
2009,04,28,13,03,15.00
2009,04,28,13,04,15.00
2009,04,28,13,05,15.00
2009,04,28,13,06,15.00
2009,04,28,13,07,15.00
2009,04,28,13,08,15.10
2009,04,28,13,09,15.30
2009,04,28,13,10,15.30
2009,04,28,13,11,15.40
2009,04,28,13,12,15.30
2009,04,28,13,13,15.40
2009,04,28,13,14,15.40
2009,04,28,13,15,15.30
2009,04,28,13,16,15.30
2009,04,28,13,17,15.20
2009,04,28,13,18,15.20
2009,04,28,13,19,15.30
2009,04,28,13,20,15.30
2009,04,28,13,21,15.30
2009,04,28,13,22,15.40
2009,04,28,13,23,15.30
2009,04,28,13,24,15.40
2009,04,28,13,25,15.40
2009,04,28,13,26,15.40
2009,04,28,13,27,15.50
2009,04,28,13,28,15.60
2009,04,28,13,29,15.50
2009,04,28,13,30,15.40
2009,04,28,13,31,15.30
2009,04,28,13,32,15.30
2009,04,28,13,33,15.20
2009,04,28,13,34,15.20
2009,04,28,13,35,15.30
2009,04,28,13,36,15.30
2009,04,28,13,37,15.30
2009,04,28,13,38,15.30
2009,04,28,13,39,15.30
2009,04,28,13,40,15.20
2009,04,28,13,41,15.30
2009,04,28,13,42,15.40
2009,04,28,13,43,15.50
2009,04,28,13,44,15.50
2009,04,28,13,45,15.60
2009,04,28,13,46,15.60
2009,04,28,13,47,15.60
2009,04,28,13,48,15.60
2009,04,28,13,49,15.50
2009,04,28,13,50,15.40
2009,04,28,13,51,15.30
2009,04,28,13,52,15.30
2009,04,28,13,53,15.40
2009,04,28,13,54,15.50
2009,04,28,13,55,15.60
2009,04,28,13,56,15.70
2009,04,28,13,57,15.70
2009,04,28,13,58,15.80
2009,04,28,13,59,15.80
2009,04,28,14,00,15.80
2009,04,28,14,01,15.80
2009,04,28,14,02,15.70
2009,04,28,14,03,15.60
2009,04,28,14,04,15.50
2009,04,28,14,05,15.40
2009,04,28,14,06,15.50
2009,04,28,14,07,15.50
2009,04,28,14,08,15.70
2009,04,28,14,09,15.80
2009,04,28,14,10,15.90
2009,04,28,14,11,15.90
2009,04,28,14,12,15.90
2009,04,28,14,13,15.90
2009,04,28,14,14,15.90
2009,04,28,14,15,16.00
2009,04,28,14,16,16.00
2009,04,28,14,17,16.00
2009,04,28,14,18,15.90
2009,04,28,14,19,15.80
2009,04,28,14,20,15.80
2009,04,28,14,21,15.70
2009,04,28,14,22,15.70
2009,04,28,14,23,15.70
2009,04,28,14,24,15.60
2009,04,28,14,25,15.60
2009,04,28,14,26,15.60
2009,04,28,14,27,15.60
2009,04,28,14,28,15.60
2009,04,28,14,29,15.70
2009,04,28,14,30,15.80
2009,04,28,14,31,15.80
2009,04,28,14,32,15.80
2009,04,28,14,33,15.80
2009,04,28,14,34,15.80
2009,04,28,14,35,15.70
2009,04,28,14,36,15.70
2009,04,28,14,37,15.60
2009,04,28,14,38,15.50
2009,04,28,14,39,15.50
2009,04,28,14,40,15.50
2009,04,28,14,41,15.60
2009,04,28,14,42,15.70
2009,04,28,14,43,15.70
2009,04,28,14,44,15.80
2009,04,28,14,45,15.80
2009,04,28,14,46,15.80
2009,04,28,14,47,15.90
2009,04,28,14,48,16.10
2009,04,28,14,49,16.20
2009,04,28,14,50,16.20
2009,04,28,14,51,16.20
2009,04,28,14,52,16.20
2009,04,28,14,53,16.10
2009,04,28,14,54,16.10
2009,04,28,14,55,16.00
2009,04,28,14,56,16.00
2009,04,28,14,57,16.00
2009,04,28,14,58,15.90
2009,04,28,14,59,15.90
2009,04,28,15,00,15.90
2009,04,28,15,01,16.00
2009,04,28,15,02,16.00
2009,04,28,15,03,16.10
2009,04,28,15,04,16.10
2009,04,28,15,05,16.10
2009,04,28,15,06,16.00
2009,04,28,15,07,15.90
2009,04,28,15,08,15.80
2009,04,28,15,09,15.80
2009,04,28,15,10,15.80
2009,04,28,15,11,15.70
2009,04,28,15,12,15.70
2009,04,28,15,13,15.60
2009,04,28,15,14,15.60
2009,04,28,15,15,15.60
2009,04,28,15,16,15.70
2009,04,28,15,17,15.80
2009,04,28,15,18,15.80
2009,04,28,15,19,15.80
2009,04,28,15,20,15.90
2009,04,28,15,21,15.80
2009,04,28,15,22,15.90
2009,04,28,15,23,15.90
2009,04,28,15,24,15.80
2009,04,28,15,25,15.80
2009,04,28,15,26,15.70
2009,04,28,15,27,15.70
2009,04,28,15,28,15.70
2009,04,28,15,29,15.70
2009,04,28,15,30,15.70
2009,04,28,15,31,15.70
2009,04,28,15,32,15.70
2009,04,28,15,33,15.70
2009,04,28,15,34,15.70
2009,04,28,15,35,15.70
2009,04,28,15,36,15.70
2009,04,28,15,37,15.70
2009,04,28,15,38,15.70
2009,04,28,15,39,15.70
2009,04,28,15,40,15.70
2009,04,28,15,41,15.70
2009,04,28,15,42,15.80
2009,04,28,15,43,15.80
2009,04,28,15,44,15.80
2009,04,28,15,45,15.80
2009,04,28,15,46,15.80
2009,04,28,15,47,15.80
2009,04,28,15,48,15.70
2009,04,28,15,49,15.60
2009,04,28,15,50,15.40
2009,04,28,15,51,15.30
2009,04,28,15,52,15.20
2009,04,28,15,53,15.10
2009,04,28,15,54,15.10
2009,04,28,15,55,15.10
2009,04,28,15,56,15.00
2009,04,28,15,57,15.00
2009,04,28,15,58,15.00
2009,04,28,15,59,15.00
2009,04,28,16,00,15.00
2009,04,28,16,01,15.00
2009,04,28,16,02,15.00
2009,04,28,16,03,15.00
2009,04,28,16,04,15.00
2009,04,28,16,05,15.00
2009,04,28,16,06,15.00
2009,04,28,16,07,15.00
2009,04,28,16,08,15.20
2009,04,28,16,09,15.20
2009,04,28,16,10,15.30
2009,04,28,16,11,15.40
2009,04,28,16,12,15.40
2009,04,28,16,13,15.40
2009,04,28,16,14,15.40
2009,04,28,16,15,15.40
2009,04,28,16,16,15.40
2009,04,28,16,17,15.40
2009,04,28,16,18,15.40
2009,04,28,16,19,15.40
2009,04,28,16,20,15.40
2009,04,28,16,21,15.40
2009,04,28,16,22,15.40
2009,04,28,16,23,15.40
2009,04,28,16,24,15.40
2009,04,28,16,25,15.50
2009,04,28,16,26,15.50
2009,04,28,16,27,15.50
2009,04,28,16,28,15.50
2009,04,28,16,29,15.60
2009,04,28,16,30,15.60
2009,04,28,16,31,15.60
2009,04,28,16,32,15.60
2009,04,28,16,33,15.60
2009,04,28,16,34,15.60
2009,04,28,16,35,15.60
2009,04,28,16,36,15.60
2009,04,28,16,37,15.70
2009,04,28,16,38,15.70
2009,04,28,16,39,15.80
2009,04,28,16,40,15.80
2009,04,28,16,41,15.90
2009,04,28,16,42,15.90
2009,04,28,16,43,15.90
2009,04,28,16,44,15.90
2009,04,28,16,45,16.00
2009,04,28,16,46,16.00
2009,04,28,16,47,16.10
2009,04,28,16,48,16.10
2009,04,28,16,49,16.10
2009,04,28,16,50,16.20
2009,04,28,16,51,16.30
2009,04,28,16,52,16.30
2009,04,28,16,53,16.20
2009,04,28,16,54,16.20
2009,04,28,16,55,16.20
2009,04,28,16,56,16.20
2009,04,28,16,57,16.10
2009,04,28,16,58,16.00
2009,04,28,16,59,16.00
2009,04,28,17,00,16.00
2009,04,28,17,01,16.00
2009,04,28,17,02,16.00
2009,04,28,17,03,16.00
2009,04,28,17,04,16.00
2009,04,28,17,05,16.00
2009,04,28,17,06,16.10
2009,04,28,17,07,16.10
2009,04,28,17,08,16.10
2009,04,28,17,09,16.10
2009,04,28,17,10,16.20
2009,04,28,17,11,16.20
2009,04,28,17,12,16.30
2009,04,28,17,13,16.40
2009,04,28,17,14,16.40
2009,04,28,17,15,16.30
2009,04,28,17,16,16.30
2009,04,28,17,17,16.30
2009,04,28,17,18,16.30
2009,04,28,17,19,16.20
2009,04,28,17,20,16.20
2009,04,28,17,21,16.20
2009,04,28,17,22,16.20
2009,04,28,17,23,16.10
2009,04,28,17,24,16.10
2009,04,28,17,25,16.10
2009,04,28,17,26,16.10
2009,04,28,17,27,16.10
2009,04,28,17,28,16.20
2009,04,28,17,29,16.20
2009,04,28,17,30,16.30
2009,04,28,17,31,16.30
2009,04,28,17,32,16.20
2009,04,28,17,33,16.20
2009,04,28,17,34,16.20
2009,04,28,17,35,16.20
2009,04,28,17,36,16.20
2009,04,28,17,37,16.20
2009,04,28,17,38,16.20
2009,04,28,17,39,16.20
2009,04,28,17,40,16.20
2009,04,28,17,41,16.20
2009,04,28,17,42,16.20
2009,04,28,17,43,16.20
2009,04,28,17,44,16.20
2009,04,28,17,45,16.20
2009,04,28,17,46,16.20
2009,04,28,17,47,16.10
2009,04,28,17,48,16.20
2009,04,28,17,49,16.20
2009,04,28,17,50,16.20
2009,04,28,17,51,16.20
2009,04,28,17,52,16.30
2009,04,28,17,53,16.30
2009,04,28,17,54,16.30
2009,04,28,17,55,16.30
2009,04,28,17,56,16.30
2009,04,28,17,57,16.30
2009,04,28,17,58,16.30
2009,04,28,17,59,16.30
2009,04,28,18,00,16.30
2009,04,28,18,01,16.30
2009,04,28,18,02,16.30
2009,04,28,18,03,16.30
2009,04,28,18,04,16.30
2009,04,28,18,05,16.40
2009,04,28,18,06,16.40
2009,04,28,18,07,16.50
2009,04,28,18,08,16.60
2009,04,28,18,09,16.60
2009,04,28,18,10,16.50
2009,04,28,18,11,16.50
2009,04,28,18,12,16.40
2009,04,28,18,13,16.30
2009,04,28,18,14,16.30
2009,04,28,18,15,16.20
2009,04,28,18,16,16.20
2009,04,28,18,17,16.10
2009,04,28,18,18,16.10
2009,04,28,18,19,16.10
2009,04,28,18,20,16.00
2009,04,28,18,21,16.00